カタログに戻る

UMBRA-12

運用中科学SSO
NORAD 67371·PAYLOAD·🇺🇸 United States

打ち上げ Jan 11, 2026 から Vandenberg Space Force Base

Loading…

次のパス (今後24時間)

TLE

最新Source: Space-Track

元期: Sep 14, 2026, 10:40 UTC

1 67371U 26004J   26257.44493771  .00003188  00000-0  33659-3 0  9996
2 67371  97.8078 255.0456 0005481 181.5635 178.5567 14.89961356 36593

AllMySatでUMBRA-12をリアルタイム追跡

Download on the App Store